Location: Bohy
(49.9380°N, 13.5753°E)
Time: 07:07:25
(UTC+00:00)

SL-24 R/B - Pass Details

Date: 19 May 2025
Orbit: 623 x 1072 km, 98.1° (Epoch: 22 June)

Event Time Altitude Azimuth Distance (km) Brightness Sun altitude
Rises 21:03:10 0° 13° (NNE) 2,922 8.3 -15.3°
Reaches altitude 10° 21:05:20 10° 14° (NNE) 2,009 7.4 -15.5°
Maximum altitude 21:09:39 88° 289° (WNW) 644 4.1 -15.8°
Enters shadow 21:12:54 19° 197° (SSW) 1,574 5.7 -16.0°
